Miscellaneous Local Product
Issued by NWS North Platte, NE

Home | Current Version | Previous Version | Graphics & Text | Print | Product List | Glossary On
Versions: 1 2 3 4 5 6 7 8 9 10 11 12 13 14 15 16 17 18 19 20 21 22 23 24 25 26 27 28 29 30 31 32 33 34 35 36 37 38 39 40 41 42 43 44 45 46 47 48 49 50
000
AXUS43 KLBF 201610
MISLBF


WESTERN AND NORTH CENTRAL NEBRASKA HOURLY WEATHER ROUNDUP
NATIONAL WEATHER SERVICE NORTH PLATTE NE
1100 AM CDT MON OCT 20 2014

***STATIONS NOT REPORTING VARIABLES SUCH AS SKY/WEATHER OR
PRESSURE ARE PROVIDED BY THE NEBRASKA DEPARTMENT OF
ROADS...RAWS...AND APRS NETWORKS...AND ARE NOT UNDER
NATIONAL WEATHER SERVICE QUALITY CONTROL***

...OBSERVATIONS IN AND NEAR THE EASTERN PANHANDLE OF NEBRASKA...

CITY           SKY/WX    TMP DP  RH WIND       PRES   REMARKS
PINE RIDGE     SUNNY     60  41  49 S8        30.08
CHADRON        SUNNY     55  43  63 CALM      30.07S
ALLIANCE       SUNNY     61  43  51 S9        30.12S
SIDNEY         SUNNY     64  42  44 S17       30.16R
WHITECLAY        N/A     61  40  45 S9          N/A
RUSHVILLE        N/A     56  35  46 S10         N/A
CRESCENT LAKE    N/A     62  42  48 S6          N/A
LISCO            N/A     59  41  51 E6          N/A
BIG SPRINGS      N/A     45  41  85 W3          N/A
LEWELLEN         N/A     57  37  46 E5          N/A
$$

...OBSERVATIONS IN NORTH CENTRAL NEBRASKA...

CITY           SKY/WX    TMP DP  RH WIND       PRES   REMARKS
VALENTINE      SUNNY     59  40  49 CALM      30.12F
THEDFORD       SUNNY     63  41  44 SE5       30.14S
AINSWORTH      SUNNY     62  41  45 SE6       30.13F
O`NEILL        SUNNY     60  45  57 CALM      30.14S
ORD            SUNNY     58  41  53 CALM      30.14S
BROKEN BOW     SUNNY     62  44  51 VRB3      30.14S
BROWNLEE         N/A     64  40  42 S9          N/A
SPRINGVIEW       N/A     55  43  64 CALM        N/A
BREWSTER         N/A     63  43  47 E5          N/A
ROSE             N/A     69  45  41 E7          N/A
NEWPORT          N/A     62  43  49 CALM        N/A
SARGENT          N/A     59  45  58 CALM        N/A
COMSTOCK         N/A     68  44  41 E5          N/A
CHAMBERS         N/A     61  44  53 CALM        N/A
$$

...OBSERVATIONS IN SOUTHWEST NEBRASKA AND FAR NORTHEAST COLORADO...

CITY           SKY/WX    TMP DP  RH WIND       PRES   REMARKS
WRAY           FAIR      62  43  49 CALM      30.17R
HOLYOKE        FAIR      61  45  55 S3        30.16S
IMPERIAL       SUNNY     62  43  49 CALM      30.16S
OGALLALA       SUNNY     55  41  59 CALM      30.15S
NORTH PLATTE   SUNNY     55  41  59 CALM      30.16R
MCCOOK         SUNNY     56  43  61 VRB3      30.16R
LEXINGTON      SUNNY     60  45  57 CALM      30.14S
PAXTON           N/A     45  40  83 W3          N/A
SUTHERLAND       N/A     55  38  54 CALM        N/A
BRADY            N/A     53  43  70 CALM        N/A
GOTHENBURG       N/A     52  40  63 CALM        N/A
CALLAWAY         N/A     57  51  79 CALM        N/A
$$

...SOME WEATHER OBSERVATIONS FROM AROUND THE REGION...

CITY           SKY/WX    TMP DP  RH WIND       PRES   REMARKS
DENVER         MOSUNNY   63  39  41 SW7       30.18S
LARAMIE        SUNNY     52  34  50 S6        30.23S
CHEYENNE       SUNNY     60  38  43 SW6       30.18S
SCOTTSBLUFF    SUNNY     55  41  59 SE7       30.12S
RAPID CITY     SUNNY     56  43  61 SE10      30.04F
PIERRE         SUNNY     55  40  56 SE6       30.09S
WINNER         FAIR      65  40  39 SE9       30.12S
SIOUX FALLS    MOSUNNY   61  44  53 N5        30.09F
OMAHA          SUNNY     59  45  59 N7        30.10F
GRAND ISLAND   SUNNY     59  42  53 E5        30.15R
KANSAS CITY    MOSUNNY   64  51  62 NE6       30.07R
WICHITA        SUNNY     69  57  65 N8        30.08S
HAYS           SUNNY     64  50  59 NE5       30.13S
LIBERAL        SUNNY     63  54  72 NE8       30.16R
GOODLAND       SUNNY     64  47  53 SE5       30.18S
$$



USA.gov is the U.S. government's official web portal to all federal, state and local government web resources and services.